This demonstration page uses our WeatherBlox Daily Observations layout. Learn more.

Left ArrowRight Arrow

41.86663, -103.66717

Hourly Observations for November 6, 2016

Temp ( °F °C ) Dew Point ( °F °C ) Humidity (%) Winds ( mph kmh ) Pressure ( in mb ) Visibility ( mi km ) Precip ( " mm )
12:53 am 00:53 Clear 48 8.9 36 2.2 63 63 E 8 13 29.97 1015 10 16 N/A
1:53 am 01:53 Clear 45 7.2 35 1.7 68 68 E 6 9 29.95 1014 10 16 N/A
1:53 am 01:53 Clear 44 6.7 35 1.7 71 71 ESE 10 17 29.93 1014 10 16 N/A
2:53 am 02:53 Clear 42 5.6 34 1.1 73 73 ESE 9 15 29.93 1014 10 16 N/A
3:53 am 03:53 Clear 42 5.6 35 1.7 76 76 SE 9 15 29.94 1014 10 16 N/A
4:53 am 04:53 Clear 41 5 36 2.2 82 82 ESE 8 13 29.97 1015 10 16 N/A
5:53 am 05:53 Clear 39 3.9 35 1.7 86 86 E 8 13 29.98 1015 10 16 N/A
6:53 am 06:53 Sunny 39 3.9 36 2.2 89 89 ESE 9 15 29.98 1015 9 14 N/A
7:53 am 07:53 Sunny 42 5.6 39 3.9 89 89 ESE 7 11 29.97 1015 9 14 N/A
8:53 am 08:53 Sunny 47 8.3 40 4.4 77 77 E 6 9 29.95 1014 10 16 N/A
9:53 am 09:53 Sunny 54 12.2 41 5 62 62 ESE 7 11 29.94 1014 10 16 N/A
10:53 am 10:53 Sunny 56 13.3 41 5 57 57 ESE 14 22 29.92 1013 10 16 N/A
11:53 am 11:53 Sunny 62 16.7 42 5.6 48 48 SE 8 13 29.90 1013 10 16 N/A
12:53 pm 12:53 Sunny 65 18.3 39 3.9 39 39 SE 13 20 29.88 1012 10 16 N/A
1:53 pm 13:53 Sunny 64 17.8 41 5 43 43 SE 13 20 29.88 1012 10 16 N/A
2:53 pm 14:53 Sunny 64 17.8 39 3.9 40 40 SE 8 13 29.88 1012 10 16 N/A
3:53 pm 15:53 Sunny 64 17.8 39 3.9 40 40 SE 7 11 29.89 1012 10 16 N/A
4:53 pm 16:53 Clear 58 14.4 43 6.1 58 58 ESE 9 15 29.92 1013 10 16 N/A
5:53 pm 17:53 Clear 57 13.9 43 6.1 60 60 SE 10 17 29.95 1014 10 16 N/A
6:53 pm 18:53 Clear 49 9.4 42 5.6 77 77 ESE 8 13 29.98 1015 10 16 N/A
7:53 pm 19:53 Clear 46 7.8 41 5 83 83 E 7 11 29.99 1016 10 16 N/A
8:53 pm 20:53 Clear 44 6.7 41 5 89 89 N N/A 29.99 1016 10 16 N/A
9:53 pm 21:53 Clear 44 6.7 38 3.3 79 79 NW 9 15 29.99 1016 10 16 N/A
10:53 pm 22:53 Clear 41 5 34 1.1 76 76 NW 8 13 30.00 1016 10 16 N/A
11:53 pm 23:53 Clear 40 4.4 35 1.7 83 83 WNW 9 15 30.01 1016 10 16 N/A

Powered by AerisWeather